sat.trackr.live / text

‹ back to catalog

STARLINK-33780

NORAD 63459 · 2025-069AC

PAYLOAD ACTIVE UNKNOWN

§ Identity

Operator
Country
US
Launch date
2025-04-04
Launch site
AFWTR
Launch vehicle
Mass (kg)
RCS (m²)

Purposes: comms

External: N2YO · Heavens-Above · Gunter

§ Orbital elements

Epoch: 2026-09-20T20:28:21.956160Z

Period
93.85 min
Inclination
53.1602°
Eccentricity
0.0001224
Mean motion
15.34400252 rev/d
Perigee alt
461.9 km
Apogee alt
463.5 km
Semi-major
6,840.8 km
B*
5.4438e-4
RAAN
308.2320°
Arg perigee
83.4721°
Mean anomaly
276.6421°
Rev number
8,328

§ Raw data

STARLINK-337801 63459U 25069AC  26263.85303190  .00018061  00000+0  54438-3 0  99992 63459  53.1602 308.2320 0001224  83.4721 276.6421 15.34400252 83283

JSON: /api/v1/satellites/63459 · /tle

For live sub-satellite position, see the globe view (requires WebGL).

§ Visibility from observer

Set your observer location to see the next 7 days of passes ≥ 10°. The values pass through the URL so the page stays shareable.

No JS? Fill the form by hand. The geolocation button needs JavaScript.